DUMME EDGE-EDTQ

Flight info

Callsign DUMME
Flight time 1h 18m
Altitude 6000
Route GAPLA DCT DEMAB DCT LBU
Aircraft C172/L-SFG/C

Departure

Time 2026-05-06 11:24
Airport Eisenach-Kindel Airport (EDGE)

Arrival

Time 2026-05-06 12:42
Airport Pattonville Airfield (EDTQ)
Time Latitude Longitude Altitude Speed Heading
2026-05-06 11:14 50.99586 10.46868 1141 ft 0 kts 14°
2026-05-06 11:18 50.99593 10.46855 1141 ft 4 kts 248°
2026-05-06 11:18 50.99558 10.46879 1140 ft 10 kts 106°
2026-05-06 11:19 50.99533 10.47029 1137 ft 16 kts 104°
2026-05-06 11:19 50.99507 10.47209 1127 ft 17 kts 101°
2026-05-06 11:19 50.99472 10.47403 1127 ft 19 kts 105°
2026-05-06 11:19 50.99440 10.47607 1123 ft 19 kts 104°
2026-05-06 11:20 50.99394 10.47899 1117 ft 22 kts 102°
2026-05-06 11:20 50.99369 10.48054 1113 ft 22 kts 104°
2026-05-06 11:20 50.99328 10.48291 1108 ft 23 kts 102°
2026-05-06 11:20 50.99294 10.48525 1103 ft 20 kts 104°
2026-05-06 11:21 50.99255 10.48746 1097 ft 20 kts 103°
2026-05-06 11:21 50.99239 10.48896 1094 ft 5 kts 132°
2026-05-06 11:21 50.99213 10.48889 1094 ft 5 kts 231°
2026-05-06 11:21 50.99185 10.48858 1094 ft 4 kts 198°
2026-05-06 11:22 50.99149 10.48841 1094 ft 8 kts 196°
2026-05-06 11:22 50.99077 10.48813 1093 ft 12 kts 195°
2026-05-06 11:22 50.99034 10.48742 1093 ft 7 kts 280°
2026-05-06 11:22 50.99054 10.48613 1098 ft 28 kts 283°
2026-05-06 11:23 50.99139 10.48082 1130 ft 63 kts 270°
2026-05-06 11:23 50.99269 10.47358 1255 ft 77 kts 278°
2026-05-06 11:23 50.99425 10.46550 1472 ft 74 kts 276°
2026-05-06 11:23 50.99581 10.45664 1550 ft 91 kts 279°
2026-05-06 11:24 50.99669 10.44640 1803 ft 95 kts 272°
2026-05-06 11:24 50.99789 10.43602 2040 ft 97 kts 283°
2026-05-06 11:24 50.99984 10.42646 2299 ft 94 kts 258°
2026-05-06 11:24 50.99646 10.41864 2549 ft 86 kts 222°
2026-05-06 11:25 50.99080 10.41518 2701 ft 91 kts 195°
2026-05-06 11:25 50.98458 10.41258 2849 ft 97 kts 198°
2026-05-06 11:25 50.97788 10.40994 2975 ft 101 kts 199°
2026-05-06 11:25 50.97096 10.40717 3106 ft 103 kts 199°
2026-05-06 11:26 50.96415 10.40447 3225 ft 98 kts 198°
2026-05-06 11:26 50.95739 10.40175 3338 ft 102 kts 199°
2026-05-06 11:26 50.95039 10.39892 3401 ft 105 kts 198°
2026-05-06 11:26 50.94321 10.39603 3503 ft 107 kts 199°
2026-05-06 11:27 50.93597 10.39311 3623 ft 107 kts 198°
2026-05-06 11:27 50.92873 10.39022 3687 ft 107 kts 199°
2026-05-06 11:27 50.92155 10.38734 3776 ft 105 kts 198°
2026-05-06 11:27 50.91441 10.38445 3858 ft 106 kts 200°
2026-05-06 11:28 50.90713 10.38153 3861 ft 109 kts 198°
2026-05-06 11:28 50.89991 10.37865 3876 ft 110 kts 199°
2026-05-06 11:28 50.89249 10.37566 3936 ft 108 kts 198°
2026-05-06 11:28 50.88510 10.37271 3966 ft 111 kts 198°
2026-05-06 11:29 50.87784 10.36981 3987 ft 105 kts 198°
2026-05-06 11:29 50.87077 10.36699 3975 ft 104 kts 199°
2026-05-06 11:29 50.86378 10.36419 3989 ft 105 kts 199°
2026-05-06 11:29 50.85646 10.36123 3993 ft 111 kts 199°
2026-05-06 11:30 50.84897 10.35823 3989 ft 111 kts 199°
2026-05-06 11:30 50.84155 10.35526 3982 ft 109 kts 199°
2026-05-06 11:30 50.83429 10.35238 3978 ft 108 kts 199°
2026-05-06 11:30 50.82702 10.34946 3979 ft 108 kts 199°
2026-05-06 11:31 50.81974 10.34656 3983 ft 108 kts 199°
2026-05-06 11:31 50.81251 10.34366 3981 ft 106 kts 199°
2026-05-06 11:31 50.80537 10.34081 3979 ft 106 kts 199°
2026-05-06 11:31 50.79829 10.33799 3977 ft 104 kts 199°
2026-05-06 11:32 50.79120 10.33515 3980 ft 106 kts 199°
2026-05-06 11:32 50.78400 10.33227 3979 ft 107 kts 199°
2026-05-06 11:32 50.77679 10.32940 3978 ft 106 kts 199°
2026-05-06 11:32 50.76965 10.32656 3979 ft 106 kts 198°
2026-05-06 11:33 50.76249 10.32371 3979 ft 106 kts 198°
2026-05-06 11:33 50.75544 10.32084 3981 ft 106 kts 197°
2026-05-06 11:33 50.74817 10.31803 3978 ft 109 kts 198°
2026-05-06 11:33 50.74080 10.31508 3978 ft 109 kts 198°
2026-05-06 11:34 50.73338 10.31212 3977 ft 110 kts 199°
2026-05-06 11:34 50.72613 10.30924 3990 ft 109 kts 197°
2026-05-06 11:34 50.71862 10.30624 3982 ft 112 kts 197°
2026-05-06 11:34 50.71111 10.30325 3990 ft 112 kts 197°
2026-05-06 11:35 50.70351 10.30022 3993 ft 112 kts 198°
2026-05-06 11:35 50.69599 10.29741 3989 ft 109 kts 196°
2026-05-06 11:35 50.68857 10.29440 3987 ft 110 kts 197°
2026-05-06 11:35 50.68112 10.29148 3990 ft 111 kts 197°
2026-05-06 11:36 50.67366 10.28862 3991 ft 109 kts 199°
2026-05-06 11:36 50.66628 10.28563 3994 ft 110 kts 199°
2026-05-06 11:36 50.65902 10.28239 3984 ft 108 kts 207°
2026-05-06 11:36 50.65305 10.27554 4002 ft 106 kts 224°
2026-05-06 11:37 50.64883 10.26611 4034 ft 105 kts 239°
2026-05-06 11:37 50.64542 10.25605 4069 ft 104 kts 239°
2026-05-06 11:37 50.64191 10.24586 4090 ft 107 kts 240°
2026-05-06 11:37 50.63833 10.23542 4069 ft 110 kts 236°
2026-05-06 11:38 50.63472 10.22503 4118 ft 105 kts 238°
2026-05-06 11:38 50.63119 10.21481 4122 ft 107 kts 239°
2026-05-06 11:38 50.62759 10.20439 4154 ft 110 kts 239°
2026-05-06 11:38 50.62389 10.19371 4182 ft 111 kts 240°
2026-05-06 11:39 50.62017 10.18298 4178 ft 112 kts 240°
2026-05-06 11:39 50.61653 10.17246 4264 ft 106 kts 239°
2026-05-06 11:39 50.61299 10.16223 4286 ft 107 kts 239°
2026-05-06 11:39 50.60942 10.15195 4270 ft 108 kts 240°
2026-05-06 11:40 50.60576 10.14141 4253 ft 110 kts 240°
2026-05-06 11:40 50.60216 10.13102 4284 ft 106 kts 240°
2026-05-06 11:40 50.59863 10.12088 4306 ft 106 kts 239°
2026-05-06 11:40 50.59511 10.11073 4280 ft 105 kts 239°
2026-05-06 11:41 50.59159 10.10060 4259 ft 104 kts 239°
2026-05-06 11:41 50.58820 10.09083 4266 ft 102 kts 239°
2026-05-06 11:41 50.58481 10.08108 4299 ft 100 kts 238°
2026-05-06 11:41 50.58148 10.07151 4365 ft 100 kts 237°
2026-05-06 11:42 50.57815 10.06195 4441 ft 100 kts 238°
2026-05-06 11:42 50.57483 10.05241 4476 ft 103 kts 239°
2026-05-06 11:42 50.57141 10.04259 4489 ft 103 kts 238°
2026-05-06 11:42 50.56794 10.03262 4488 ft 105 kts 239°
2026-05-06 11:43 50.56438 10.02241 4490 ft 109 kts 238°
2026-05-06 11:43 50.56068 10.01181 4487 ft 111 kts 239°
2026-05-06 11:43 50.55701 10.00125 4487 ft 109 kts 238°
2026-05-06 11:44 50.54986 9.98081 4522 ft 106 kts 238°
2026-05-06 11:44 50.54633 9.97070 4572 ft 106 kts 239°
2026-05-06 11:44 50.54235 9.96098 4617 ft 107 kts 226°
2026-05-06 11:44 50.53625 9.95425 4603 ft 109 kts 207°
2026-05-06 11:45 50.52890 9.95105 4605 ft 110 kts 197°
2026-05-06 11:45 50.52145 9.94811 4596 ft 111 kts 197°
2026-05-06 11:45 50.51407 9.94520 4599 ft 108 kts 196°
2026-05-06 11:45 50.50686 9.94241 4511 ft 106 kts 197°
2026-05-06 11:46 50.49987 9.93968 4460 ft 100 kts 197°
2026-05-06 11:46 50.49306 9.93702 4488 ft 103 kts 199°
2026-05-06 11:46 50.48602 9.93428 4517 ft 108 kts 199°
2026-05-06 11:46 50.47869 9.93139 4543 ft 106 kts 198°
2026-05-06 11:47 50.47141 9.92853 4576 ft 109 kts 198°
2026-05-06 11:47 50.46412 9.92570 4606 ft 107 kts 198°
2026-05-06 11:47 50.45679 9.92283 4627 ft 110 kts 198°
2026-05-06 11:47 50.44946 9.91997 4643 ft 111 kts 198°
2026-05-06 11:48 50.44188 9.91701 4668 ft 110 kts 197°
2026-05-06 11:48 50.43439 9.91409 4698 ft 112 kts 198°
2026-05-06 11:48 50.42680 9.91114 4727 ft 113 kts 198°
2026-05-06 11:48 50.41913 9.90815 4752 ft 115 kts 199°
2026-05-06 11:49 50.41135 9.90533 4774 ft 115 kts 196°
2026-05-06 11:49 50.40375 9.90216 4793 ft 111 kts 198°
2026-05-06 11:49 50.39620 9.89922 4820 ft 112 kts 197°
2026-05-06 11:49 50.38867 9.89617 4845 ft 112 kts 201°
2026-05-06 11:50 50.38117 9.89344 4878 ft 112 kts 197°
2026-05-06 11:50 50.37368 9.89054 4896 ft 111 kts 198°
2026-05-06 11:50 50.36625 9.88762 4916 ft 109 kts 197°
2026-05-06 11:50 50.35894 9.88479 4938 ft 107 kts 198°
2026-05-06 11:51 50.35177 9.88200 4962 ft 107 kts 197°
2026-05-06 11:51 50.34453 9.87919 4990 ft 108 kts 198°
2026-05-06 11:51 50.33721 9.87628 5007 ft 108 kts 197°
2026-05-06 11:51 50.32993 9.87353 5040 ft 108 kts 198°
2026-05-06 11:52 50.32261 9.87067 5064 ft 108 kts 197°
2026-05-06 11:52 50.31535 9.86786 5090 ft 108 kts 198°
2026-05-06 11:52 50.30820 9.86508 5107 ft 105 kts 198°
2026-05-06 11:52 50.30102 9.86231 5138 ft 108 kts 198°
2026-05-06 11:53 50.29362 9.85943 5165 ft 111 kts 198°
2026-05-06 11:53 50.28614 9.85653 5191 ft 110 kts 197°
2026-05-06 11:53 50.27877 9.85368 5213 ft 109 kts 198°
2026-05-06 11:53 50.27144 9.85084 5247 ft 108 kts 198°
2026-05-06 11:54 50.26407 9.84799 5270 ft 109 kts 198°
2026-05-06 11:54 50.25672 9.84515 5294 ft 108 kts 198°
2026-05-06 11:54 50.24953 9.84237 5318 ft 107 kts 198°
2026-05-06 11:54 50.24231 9.83959 5342 ft 107 kts 199°
2026-05-06 11:55 50.23513 9.83680 5366 ft 107 kts 198°
2026-05-06 11:55 50.22788 9.83400 5389 ft 108 kts 198°
2026-05-06 11:55 50.22056 9.83117 5416 ft 109 kts 198°
2026-05-06 11:55 50.21321 9.82832 5439 ft 109 kts 198°
2026-05-06 11:56 50.20584 9.82547 5468 ft 109 kts 198°
2026-05-06 11:56 50.19850 9.82263 5492 ft 109 kts 198°
2026-05-06 11:56 50.19113 9.81979 5520 ft 109 kts 198°
2026-05-06 11:56 50.18378 9.81697 5544 ft 108 kts 198°
2026-05-06 11:57 50.17647 9.81416 5569 ft 108 kts 198°
2026-05-06 11:57 50.16911 9.81133 5594 ft 110 kts 198°
2026-05-06 11:57 50.16169 9.80849 5619 ft 110 kts 198°
2026-05-06 11:57 50.15429 9.80563 5645 ft 109 kts 198°
2026-05-06 11:58 50.14693 9.80280 5673 ft 108 kts 198°
2026-05-06 11:58 50.13961 9.79998 5699 ft 108 kts 198°
2026-05-06 11:58 50.13226 9.79714 5724 ft 109 kts 198°
2026-05-06 11:58 50.12494 9.79434 5749 ft 107 kts 198°
2026-05-06 11:59 50.11768 9.79154 5772 ft 108 kts 198°
2026-05-06 11:59 50.11041 9.78876 5796 ft 108 kts 198°
2026-05-06 11:59 50.10304 9.78591 5824 ft 110 kts 198°
2026-05-06 11:59 50.09560 9.78306 5853 ft 110 kts 199°
2026-05-06 12:00 50.08819 9.78024 5875 ft 108 kts 197°
2026-05-06 12:00 50.08093 9.77744 5900 ft 107 kts 198°
2026-05-06 12:00 50.07367 9.77464 5927 ft 108 kts 198°
2026-05-06 12:00 50.06644 9.77187 5951 ft 107 kts 198°
2026-05-06 12:01 50.05928 9.76912 5977 ft 107 kts 198°
2026-05-06 12:01 50.05199 9.76633 5991 ft 109 kts 198°
2026-05-06 12:01 50.04458 9.76349 5992 ft 110 kts 198°
2026-05-06 12:01 50.03715 9.76065 5994 ft 110 kts 198°
2026-05-06 12:02 50.02966 9.75778 5993 ft 111 kts 198°
2026-05-06 12:02 50.02208 9.75487 5994 ft 112 kts 198°
2026-05-06 12:02 50.01454 9.75199 5990 ft 111 kts 198°
2026-05-06 12:02 50.00704 9.74912 5987 ft 111 kts 198°
2026-05-06 12:03 49.99951 9.74624 5992 ft 112 kts 198°
2026-05-06 12:03 49.99193 9.74335 5992 ft 113 kts 197°
2026-05-06 12:03 49.98434 9.74045 5992 ft 112 kts 197°
2026-05-06 12:03 49.97683 9.73758 5990 ft 111 kts 197°
2026-05-06 12:04 49.97189 9.73569 5990 ft 110 kts 198°
2026-05-06 12:04 49.96441 9.73283 5990 ft 111 kts 197°
2026-05-06 12:04 49.95685 9.72993 5989 ft 113 kts 197°
2026-05-06 12:04 49.94920 9.72701 5994 ft 114 kts 197°
2026-05-06 12:05 49.94150 9.72408 5997 ft 114 kts 197°
2026-05-06 12:05 49.93384 9.72116 5996 ft 114 kts 197°
2026-05-06 12:05 49.92614 9.71823 5996 ft 114 kts 197°
2026-05-06 12:05 49.91842 9.71529 5996 ft 114 kts 197°
2026-05-06 12:06 49.91072 9.71236 5992 ft 114 kts 197°
2026-05-06 12:06 49.90301 9.70942 5993 ft 114 kts 197°
2026-05-06 12:06 49.89531 9.70648 5993 ft 114 kts 197°
2026-05-06 12:06 49.88762 9.70356 5989 ft 113 kts 197°
2026-05-06 12:07 49.87997 9.70065 5993 ft 114 kts 197°
2026-05-06 12:07 49.87226 9.69771 5996 ft 114 kts 198°
2026-05-06 12:07 49.86452 9.69477 5996 ft 114 kts 198°
2026-05-06 12:07 49.85680 9.69184 5994 ft 114 kts 197°
2026-05-06 12:08 49.84912 9.68892 5992 ft 113 kts 198°
2026-05-06 12:08 49.84147 9.68601 5993 ft 113 kts 198°
2026-05-06 12:08 49.83382 9.68310 5995 ft 113 kts 198°
2026-05-06 12:08 49.82614 9.68018 5993 ft 114 kts 198°
2026-05-06 12:09 49.81857 9.67731 5995 ft 113 kts 197°
2026-05-06 12:09 49.81090 9.67441 5995 ft 113 kts 197°
2026-05-06 12:09 49.80320 9.67150 5993 ft 114 kts 198°
2026-05-06 12:09 49.79553 9.66859 5991 ft 113 kts 197°
2026-05-06 12:10 49.78792 9.66574 5992 ft 112 kts 198°
2026-05-06 12:10 49.78036 9.66283 5991 ft 112 kts 198°
2026-05-06 12:10 49.77272 9.65992 5990 ft 113 kts 197°
2026-05-06 12:10 49.76506 9.65702 5996 ft 113 kts 197°
2026-05-06 12:11 49.75737 9.65412 5997 ft 114 kts 197°
2026-05-06 12:11 49.74978 9.65126 5996 ft 114 kts 197°
2026-05-06 12:11 49.74210 9.64836 5998 ft 114 kts 197°
2026-05-06 12:11 49.73435 9.64543 5998 ft 115 kts 197°
2026-05-06 12:12 49.72657 9.64248 6005 ft 115 kts 196°
2026-05-06 12:12 49.71880 9.63954 6005 ft 114 kts 197°
2026-05-06 12:12 49.71108 9.63664 6006 ft 114 kts 197°
2026-05-06 12:12 49.70333 9.63370 6007 ft 115 kts 196°
2026-05-06 12:13 49.69551 9.63074 6000 ft 116 kts 197°
2026-05-06 12:13 49.68771 9.62780 5999 ft 115 kts 196°
2026-05-06 12:13 49.67997 9.62490 6001 ft 113 kts 197°
2026-05-06 12:13 49.67232 9.62201 5997 ft 113 kts 197°
2026-05-06 12:14 49.66475 9.61918 5998 ft 111 kts 197°
2026-05-06 12:14 49.65724 9.61633 6002 ft 111 kts 197°
2026-05-06 12:14 49.64966 9.61347 6003 ft 113 kts 197°
2026-05-06 12:14 49.64202 9.61056 6000 ft 113 kts 197°
2026-05-06 12:15 49.63436 9.60768 6002 ft 113 kts 197°
2026-05-06 12:15 49.62672 9.60482 6003 ft 113 kts 197°
2026-05-06 12:15 49.61899 9.60191 6006 ft 115 kts 196°
2026-05-06 12:15 49.61119 9.59898 6006 ft 115 kts 196°
2026-05-06 12:16 49.60351 9.59610 6006 ft 115 kts 197°
2026-05-06 12:16 49.59573 9.59317 6006 ft 115 kts 197°
2026-05-06 12:16 49.58794 9.59026 6007 ft 115 kts 197°
2026-05-06 12:16 49.58020 9.58733 6005 ft 114 kts 198°
2026-05-06 12:17 49.57261 9.58449 6000 ft 111 kts 197°
2026-05-06 12:17 49.56514 9.58169 6005 ft 111 kts 197°
2026-05-06 12:17 49.55758 9.57885 6005 ft 112 kts 198°
2026-05-06 12:17 49.54995 9.57596 6005 ft 113 kts 197°
2026-05-06 12:18 49.54234 9.57312 6004 ft 112 kts 197°
2026-05-06 12:18 49.53477 9.57028 6003 ft 112 kts 197°
2026-05-06 12:18 49.52724 9.56746 6004 ft 111 kts 198°
2026-05-06 12:18 49.51970 9.56464 6002 ft 111 kts 197°
2026-05-06 12:19 49.51217 9.56182 6003 ft 111 kts 197°
2026-05-06 12:19 49.50473 9.55903 6006 ft 112 kts 197°
2026-05-06 12:19 49.49714 9.55619 6006 ft 113 kts 197°
2026-05-06 12:19 49.48953 9.55334 6005 ft 112 kts 197°
2026-05-06 12:20 49.48198 9.55052 6006 ft 111 kts 197°
2026-05-06 12:20 49.47444 9.54769 6006 ft 112 kts 197°
2026-05-06 12:20 49.46683 9.54485 6006 ft 113 kts 198°
2026-05-06 12:20 49.45925 9.54202 6007 ft 112 kts 197°
2026-05-06 12:21 49.45165 9.53918 6009 ft 113 kts 197°
2026-05-06 12:21 49.44403 9.53632 6007 ft 113 kts 197°
2026-05-06 12:21 49.43636 9.53345 6007 ft 114 kts 197°
2026-05-06 12:21 49.42882 9.53065 6006 ft 114 kts 196°
2026-05-06 12:22 49.42097 9.52772 6007 ft 113 kts 197°
2026-05-06 12:22 49.41331 9.52486 6011 ft 114 kts 197°
2026-05-06 12:22 49.40555 9.52196 6010 ft 115 kts 197°
2026-05-06 12:22 49.39783 9.51909 6007 ft 114 kts 197°
2026-05-06 12:23 49.39016 9.51623 6008 ft 113 kts 196°
2026-05-06 12:23 49.38249 9.51337 6010 ft 114 kts 197°
2026-05-06 12:23 49.37480 9.51051 6009 ft 113 kts 197°
2026-05-06 12:23 49.36714 9.50767 6009 ft 113 kts 197°
2026-05-06 12:24 49.35960 9.50486 6008 ft 113 kts 197°
2026-05-06 12:24 49.35194 9.50199 6006 ft 113 kts 196°
2026-05-06 12:24 49.34426 9.49915 6008 ft 114 kts 195°
2026-05-06 12:24 49.33656 9.49627 6007 ft 113 kts 195°
2026-05-06 12:25 49.32887 9.49342 6010 ft 114 kts 196°
2026-05-06 12:25 49.32115 9.49054 6011 ft 114 kts 195°
2026-05-06 12:25 49.31339 9.48767 6008 ft 114 kts 196°
2026-05-06 12:25 49.30564 9.48479 6011 ft 115 kts 195°
2026-05-06 12:26 49.29786 9.48189 6008 ft 115 kts 195°
2026-05-06 12:26 49.29002 9.47898 6009 ft 116 kts 195°
2026-05-06 12:26 49.28212 9.47606 6008 ft 117 kts 195°
2026-05-06 12:26 49.27425 9.47313 6005 ft 117 kts 196°
2026-05-06 12:27 49.26638 9.47022 6010 ft 116 kts 195°
2026-05-06 12:27 49.25851 9.46730 6009 ft 117 kts 195°
2026-05-06 12:27 49.25068 9.46441 6013 ft 118 kts 196°
2026-05-06 12:27 49.24273 9.46146 6012 ft 118 kts 195°
2026-05-06 12:28 49.23478 9.45853 6014 ft 117 kts 195°
2026-05-06 12:28 49.22685 9.45558 6012 ft 117 kts 195°
2026-05-06 12:28 49.21893 9.45264 6010 ft 117 kts 195°
2026-05-06 12:28 49.21101 9.44972 6014 ft 117 kts 196°
2026-05-06 12:29 49.20310 9.44680 6013 ft 117 kts 195°
2026-05-06 12:29 49.19523 9.44389 6015 ft 117 kts 195°
2026-05-06 12:29 49.18730 9.44096 6012 ft 117 kts 195°
2026-05-06 12:29 49.17944 9.43805 6012 ft 116 kts 195°
2026-05-06 12:30 49.17159 9.43515 6012 ft 116 kts 195°
2026-05-06 12:30 49.16374 9.43226 6012 ft 116 kts 195°
2026-05-06 12:30 49.15593 9.42937 6011 ft 116 kts 195°
2026-05-06 12:30 49.14810 9.42648 6009 ft 116 kts 195°
2026-05-06 12:31 49.14034 9.42362 6012 ft 114 kts 195°
2026-05-06 12:31 49.13262 9.42080 6018 ft 114 kts 194°
2026-05-06 12:31 49.12534 9.41604 6020 ft 116 kts 220°
2026-05-06 12:31 49.11943 9.40768 6027 ft 116 kts 224°
2026-05-06 12:32 49.11359 9.39909 6025 ft 117 kts 224°
2026-05-06 12:32 49.10783 9.39058 6029 ft 116 kts 224°
2026-05-06 12:32 49.10197 9.38191 5966 ft 120 kts 224°
2026-05-06 12:32 49.09582 9.37288 5842 ft 125 kts 224°
2026-05-06 12:33 49.08953 9.36361 5721 ft 126 kts 223°
2026-05-06 12:33 49.08326 9.35426 5600 ft 126 kts 224°
2026-05-06 12:33 49.07697 9.34483 5450 ft 128 kts 224°
2026-05-06 12:33 49.07066 9.33541 5335 ft 127 kts 224°
2026-05-06 12:34 49.06428 9.32594 5195 ft 127 kts 224°
2026-05-06 12:34 49.05787 9.31646 5068 ft 128 kts 223°
2026-05-06 12:34 49.05158 9.30712 4979 ft 125 kts 224°
2026-05-06 12:34 49.04533 9.29788 4840 ft 125 kts 224°
2026-05-06 12:35 49.03901 9.28859 4698 ft 127 kts 224°
2026-05-06 12:35 49.03272 9.27930 4620 ft 124 kts 224°
2026-05-06 12:35 49.02649 9.27046 4538 ft 121 kts 224°
2026-05-06 12:35 49.02027 9.26182 4433 ft 121 kts 223°
2026-05-06 12:36 49.01414 9.25330 4317 ft 121 kts 224°
2026-05-06 12:36 49.00738 9.24578 4205 ft 120 kts 213°
2026-05-06 12:36 49.00022 9.23911 4080 ft 122 kts 214°
2026-05-06 12:36 48.99289 9.23234 3945 ft 125 kts 213°
2026-05-06 12:37 48.98555 9.22536 3822 ft 124 kts 214°
2026-05-06 12:37 48.97813 9.21847 3699 ft 126 kts 214°
2026-05-06 12:37 48.97059 9.21142 3574 ft 127 kts 214°
2026-05-06 12:37 48.96304 9.20446 3446 ft 127 kts 213°
2026-05-06 12:38 48.95552 9.19747 3320 ft 126 kts 214°
2026-05-06 12:38 48.94800 9.19070 3193 ft 126 kts 214°
2026-05-06 12:38 48.94018 9.18458 3064 ft 127 kts 206°
2026-05-06 12:38 48.93204 9.17961 3014 ft 124 kts 204°
2026-05-06 12:39 48.92407 9.17501 3009 ft 121 kts 203°
2026-05-06 12:39 48.91623 9.17036 2979 ft 122 kts 204°
2026-05-06 12:39 48.90824 9.16583 2902 ft 122 kts 202°
2026-05-06 12:39 48.90035 9.16088 2788 ft 123 kts 210°
2026-05-06 12:40 48.89296 9.15426 2694 ft 125 kts 213°
2026-05-06 12:40 48.88509 9.14757 2433 ft 131 kts 202°
2026-05-06 12:40 48.87603 9.14734 2192 ft 133 kts 165°
2026-05-06 12:40 48.86849 9.15474 2034 ft 126 kts 122°
2026-05-06 12:41 48.86857 9.16745 1857 ft 124 kts 71°
2026-05-06 12:41 48.87102 9.17939 1697 ft 107 kts 71°
2026-05-06 12:41 48.87290 9.18958 1516 ft 93 kts 77°
2026-05-06 12:41 48.87216 9.19823 1395 ft 91 kts 118°
2026-05-06 12:42 48.86894 9.20608 1282 ft 83 kts 121°
2026-05-06 12:42 48.86615 9.21364 1085 ft 83 kts 113°
2026-05-06 12:42 48.86475 9.22123 916 ft 66 kts 102°
2026-05-06 12:42 48.86393 9.22647 906 ft 36 kts 104°
2026-05-06 12:43 48.86357 9.22877 903 ft 7 kts 104°
2026-05-06 12:43 48.86366 9.22910 902 ft 5 kts
2026-05-06 12:43 48.86392 9.22903 900 ft 3 kts 239°
2026-05-06 12:43 48.86393 9.22888 901 ft 0 kts 316°
2026-05-06 12:51 48.86398 9.22886 901 ft 4 kts
2026-05-06 12:51 48.86391 9.22914 900 ft 3 kts 143°
2026-05-06 12:51 48.86364 9.22910 902 ft 5 kts 201°
2026-05-06 12:52 48.86357 9.22877 903 ft 7 kts 287°
2026-05-06 12:52 48.86363 9.22844 903 ft 0 kts 283°
2026-05-06 12:53 48.86363 9.22843 903 ft 1 kts 283°
2026-05-06 12:53 48.86392 9.22654 905 ft 40 kts 283°
2026-05-06 12:54 48.86478 9.22055 935 ft 70 kts 280°
2026-05-06 12:54 48.86637 9.21353 1046 ft 77 kts 306°
2026-05-06 12:54 48.86996 9.20621 1122 ft 89 kts 308°
2026-05-06 12:54 48.87371 9.19865 1270 ft 92 kts 307°
2026-05-06 12:55 48.87736 9.19081 1443 ft 90 kts 306°
2026-05-06 12:55 48.88323 9.18898 1587 ft 94 kts 23°
2026-05-06 12:55 48.88779 9.19644 1715 ft 100 kts 69°
2026-05-06 12:55 48.88845 9.20685 1918 ft 96 kts 85°
2026-05-06 12:56 48.88857 9.21739 2012 ft 105 kts 90°
2026-05-06 12:56 48.88838 9.22921 2023 ft 118 kts 91°
2026-05-06 12:56 48.88804 9.24205 2011 ft 122 kts 94°
2026-05-06 12:56 48.88743 9.25514 1949 ft 125 kts 96°
2026-05-06 12:57 48.88617 9.26825 1902 ft 126 kts 102°
2026-05-06 12:57 48.88447 9.28130 1899 ft 125 kts 103°
2026-05-06 12:57 48.88284 9.29412 1874 ft 126 kts 100°
2026-05-06 12:57 48.88152 9.30698 1891 ft 122 kts 99°
2026-05-06 12:58 48.88040 9.31909 1978 ft 116 kts 99°
2026-05-06 12:58 48.87929 9.33125 1992 ft 118 kts 99°
2026-05-06 12:58 48.87822 9.34365 2016 ft 117 kts 97°
2026-05-06 12:58 48.87717 9.35590 2051 ft 118 kts 99°
2026-05-06 12:59 48.87613 9.36852 2016 ft 120 kts 99°
2026-05-06 12:59 48.87661 9.38078 2032 ft 121 kts 66°
2026-05-06 12:59 48.88100 9.39156 2037 ft 119 kts 57°
2026-05-06 12:59 48.88582 9.40208 2008 ft 121 kts 47°
2026-05-06 13:00 48.89181 9.41111 1988 ft 123 kts 44°
2026-05-06 13:00 48.89791 9.42046 1979 ft 124 kts 40°
2026-05-06 13:00 48.90490 9.42769 2019 ft 121 kts 27°
2026-05-06 13:00 48.91260 9.43294 2021 ft 121 kts 18°
2026-05-06 13:01 48.91923 9.44062 1906 ft 130 kts 63°
2026-05-06 13:01 48.91768 9.45425 1593 ft 141 kts 131°
2026-05-06 13:01 48.91179 9.46512 1555 ft 130 kts 126°
2026-05-06 13:01 48.91060 9.47734 1524 ft 116 kts 62°
2026-05-06 13:02 48.91699 9.48153 1474 ft 103 kts 338°
2026-05-06 13:02 48.91968 9.47299 1314 ft 98 kts 263°
2026-05-06 13:02 48.91876 9.46405 1106 ft 73 kts 267°
2026-05-06 13:02 48.91944 9.45709 956 ft 59 kts 291°
2026-05-06 13:03 48.92016 9.45321 957 ft 13 kts 283°
2026-05-06 13:03 48.91984 9.45368 960 ft 8 kts 105°
2026-05-06 13:03 48.91977 9.45428 959 ft 6 kts 67°
2026-05-06 13:03 48.92002 9.45509 960 ft 7 kts 79°
2026-05-06 13:04 48.92002 9.45594 963 ft 8 kts 94°
2026-05-06 13:04 48.91997 9.45669 962 ft 8 kts 96°
2026-05-06 13:04 48.91989 9.45729 963 ft 7 kts 110°
2026-05-06 13:04 48.91951 9.45784 955 ft 19 kts 229°
2026-05-06 13:05 48.91998 9.45415 959 ft 53 kts 286°
2026-05-06 13:05 48.92112 9.44767 1025 ft 69 kts 288°
2026-05-06 13:05 48.92429 9.44157 1101 ft 83 kts 337°
2026-05-06 13:05 48.92995 9.44312 1248 ft 89 kts 51°
2026-05-06 13:06 48.92963 9.45207 1377 ft 93 kts 137°
2026-05-06 13:06 48.92442 9.45687 1573 ft 90 kts 143°
2026-05-06 13:06 48.92184 9.46578 1724 ft 94 kts 109°
2026-05-06 13:06 48.92037 9.47515 1908 ft 94 kts 99°
2026-05-06 13:07 48.91968 9.48555 1966 ft 104 kts 97°
2026-05-06 13:07 48.91898 9.49675 2022 ft 113 kts 98°
2026-05-06 13:07 48.91790 9.50881 2131 ft 114 kts 101°
2026-05-06 13:07 48.91577 9.52040 2257 ft 116 kts 115°
2026-05-06 13:08 48.91106 9.53072 2261 ft 121 kts 133°
2026-05-06 13:08 48.90530 9.54001 2253 ft 126 kts 136°
2026-05-06 13:08 48.89905 9.54893 2245 ft 125 kts 137°
2026-05-06 13:08 48.89329 9.55964 2091 ft 131 kts 124°
2026-05-06 13:09 48.88894 9.57174 2047 ft 132 kts 117°
2026-05-06 13:09 48.88569 9.58444 2012 ft 124 kts 111°
2026-05-06 13:09 48.88282 9.59692 1974 ft 125 kts 111°
2026-05-06 13:09 48.88008 9.60882 2112 ft 116 kts 111°
2026-05-06 13:10 48.87804 9.62104 2034 ft 125 kts 98°
2026-05-06 13:10 48.87773 9.63363 1911 ft 114 kts 91°
2026-05-06 13:10 48.87738 9.64580 1826 ft 112 kts 97°
2026-05-06 13:10 48.87822 9.65687 1768 ft 106 kts 80°
2026-05-06 13:11 48.88031 9.66715 1886 ft 96 kts 89°
2026-05-06 13:11 48.87638 9.67266 1916 ft 90 kts 201°
2026-05-06 13:11 48.87542 9.66470 1800 ft 87 kts 281°
2026-05-06 13:11 48.87651 9.65647 1724 ft 67 kts 261°
2026-05-06 13:12 48.87562 9.65008 1725 ft 70 kts 237°
2026-05-06 13:12 48.87093 9.64694 1832 ft 80 kts 195°
2026-05-06 13:12 48.86659 9.64151 1862 ft 96 kts 233°
2026-05-06 13:12 48.86251 9.63289 1902 ft 106 kts 233°
2026-05-06 13:13 48.85964 9.62324 2048 ft 104 kts 256°
2026-05-06 13:13 48.85819 9.61173 2013 ft 115 kts 268°
2026-05-06 13:13 48.85783 9.59927 2001 ft 119 kts 266°
2026-05-06 13:13 48.85717 9.58681 2016 ft 117 kts 266°
2026-05-06 13:14 48.85588 9.57485 2002 ft 114 kts 243°
2026-05-06 13:14 48.85133 9.56513 2005 ft 111 kts 235°
2026-05-06 13:14 48.84656 9.55580 1995 ft 111 kts 234°
2026-05-06 13:14 48.84179 9.54668 2016 ft 112 kts 234°
2026-05-06 13:15 48.83696 9.53746 2009 ft 111 kts 234°
2026-05-06 13:15 48.83216 9.52812 2023 ft 115 kts 234°
2026-05-06 13:15 48.82704 9.51831 2021 ft 121 kts 234°
2026-05-06 13:15 48.82192 9.50824 2028 ft 121 kts 233°
2026-05-06 13:16 48.81672 9.49809 2020 ft 120 kts 234°
2026-05-06 13:16 48.81160 9.48819 2010 ft 119 kts 234°
2026-05-06 13:16 48.80653 9.47836 2007 ft 118 kts 234°
2026-05-06 13:16 48.80150 9.46864 2005 ft 116 kts 234°
2026-05-06 13:17 48.79650 9.45921 2010 ft 113 kts 234°
2026-05-06 13:17 48.79156 9.45003 2017 ft 112 kts 233°
2026-05-06 13:17 48.78667 9.44078 2009 ft 112 kts 235°
2026-05-06 13:17 48.78174 9.43145 2016 ft 114 kts 232°
2026-05-06 13:18 48.77772 9.42176 2087 ft 106 kts 255°
2026-05-06 13:18 48.77605 9.41040 2033 ft 116 kts 261°
2026-05-06 13:18 48.77514 9.39826 2032 ft 114 kts 265°
2026-05-06 13:18 48.77304 9.38670 1973 ft 117 kts 244°
2026-05-06 13:19 48.76865 9.37653 2076 ft 113 kts 239°
2026-05-06 13:19 48.76417 9.36621 1994 ft 119 kts 238°
2026-05-06 13:19 48.76032 9.35512 1980 ft 119 kts 248°
2026-05-06 13:19 48.75883 9.34448 1781 ft 85 kts 277°
2026-05-06 13:20 48.76088 9.33735 1578 ft 63 kts 302°
2026-05-06 13:20 48.76247 9.33346 1594 ft 24 kts 303°
2026-05-06 13:20 48.76266 9.33300 1595 ft 0 kts 302°
2026-05-06 13:20 48.76273 9.33283 1596 ft 12 kts 296°
2026-05-06 13:21 48.76343 9.33110 1605 ft 3 kts 306°
2026-05-06 13:21 48.76356 9.33118 1607 ft 5 kts 105°
2026-05-06 13:21 48.76265 9.33321 1595 ft 45 kts 124°
2026-05-06 13:21 48.76026 9.33870 1608 ft 70 kts 123°
2026-05-06 13:22 48.75765 9.34552 1643 ft 85 kts 122°
2026-05-06 13:22 48.75372 9.35181 1721 ft 86 kts 174°
2026-05-06 13:22 48.74893 9.34748 1787 ft 90 kts 245°
2026-05-06 13:22 48.74855 9.33776 1931 ft 94 kts 287°
2026-05-06 13:23 48.75179 9.32877 1984 ft 108 kts 302°
2026-05-06 13:23 48.75598 9.31925 1978 ft 112 kts 303°
2026-05-06 13:23 48.76036 9.30973 1953 ft 110 kts 305°
2026-05-06 13:23 48.76486 9.30042 1949 ft 110 kts 303°
2026-05-06 13:24 48.76943 9.29075 1903 ft 112 kts 305°
2026-05-06 13:24 48.77382 9.28108 1947 ft 109 kts 301°
2026-05-06 13:24 48.77792 9.27129 1896 ft 109 kts 301°
2026-05-06 13:24 48.78252 9.26191 1866 ft 111 kts 306°
2026-05-06 13:25 48.78757 9.25282 1819 ft 115 kts 315°
2026-05-06 13:25 48.79473 9.24738 1761 ft 122 kts 352°
2026-05-06 13:25 48.80303 9.24671 1815 ft 114 kts 354°
2026-05-06 13:25 48.81150 9.24592 1647 ft 126 kts 355°
2026-05-06 13:26 48.82044 9.24539 1559 ft 124 kts 353°
2026-05-06 13:26 48.82914 9.24444 1412 ft 127 kts 354°
2026-05-06 13:26 48.83771 9.24294 1305 ft 127 kts 354°
2026-05-06 13:26 48.84665 9.24174 1133 ft 122 kts 354°
2026-05-06 13:27 48.85382 9.24043 1136 ft 88 kts 348°
2026-05-06 13:27 48.85934 9.23775 1100 ft 83 kts 335°
2026-05-06 13:27 48.86317 9.23202 987 ft 73 kts 288°
2026-05-06 13:27 48.86404 9.22601 917 ft 40 kts 282°
2026-05-06 13:28 48.86447 9.22294 920 ft 15 kts 282°
2026-05-06 13:28 48.86458 9.22246 922 ft 4 kts 311°
2026-05-06 13:28 48.86492 9.22231 923 ft 0 kts 311°